This demonstration page uses our WeatherBlox Daily Observations layout. Learn more.

Left ArrowRight Arrow

Hourly Observations for January 24, 2019

Temp ( °F °C ) Dew Point ( °F °C ) Humidity (%) Winds ( mph kmh ) Pressure ( in mb ) Visibility ( mi km ) Precip ( " mm )
12:59 am 00:59 Mostly Cloudy 60 15.6 55 12.8 84 84 S 13 20 29.89 1012 10 16 0.00 0.00
1:59 am 01:59 Cloudy 60 15.6 55 12.8 84 84 S 12 19 29.88 1012 10 16 0.00 0.00
2:59 am 02:59 Mostly Cloudy 61 16.1 54 12.2 78 78 S 12 19 29.83 1010 10 16 0.00 0.00
3:59 am 03:59 Mostly Cloudy 63 17.2 54 12.2 73 73 S 14 22 29.79 1009 10 16 0.00 0.00
4:59 am 04:59 Cloudy 65 18.3 56 13.3 73 73 S 16 26 29.75 1007 10 16 0.00 0.00
5:59 am 05:59 Cloudy 64 17.8 57 13.9 78 78 S 15 24 29.70 1006 10 16 0.00 0.00
6:33 am 06:33 Cloudy 64 17.8 58 14.4 81 81 S 15 24 29.68 1005 10 16 0.00 0.00
6:59 am 06:59 Cloudy 65 18.3 59 15 81 81 S 17 28 29.66 1005 10 16 0.00 0.00
7:41 am 07:41 Cloudy with Light Rain 63 17.2 61 16.1 93 93 S 16 26 29.65 1004 2 3 0.08 2.03
7:59 am 07:59 Cloudy with Light Rain 63 17.2 61 16.1 93 93 S 17 28 29.63 1003 2 3 0.15 3.81
8:59 am 08:59 Cloudy with Light Rain 64 17.8 62 16.7 93 93 S 23 37 29.58 1002 2 3 0.34 8.64
9:05 am 09:05 Cloudy with Rain 64 17.8 62 16.7 93 93 S 15 24 29.59 1002 2 3 0.06 1.52
9:16 am 09:16 Cloudy with Rain 64 17.8 62 16.7 93 93 S 20 31 29.56 1001 2 3 0.09 2.29
9:18 am 09:18 Cloudy with Rain 64 17.8 62 16.7 93 93 S 17 28 29.56 1001 2 3 0.12 3.05
9:36 am 09:36 Cloudy with Rain 64 17.8 62 16.7 93 93 S 20 31 29.56 1001 2 3 0.24 6.10
9:43 am 09:43 Cloudy with Light Rain 65 18.3 62 16.7 90 90 S 20 31 29.56 1001 2 3 0.26 6.60
9:59 am 09:59 Cloudy with Light Rain 65 18.3 62 16.7 90 90 S 22 35 29.54 1001 5 8 0.29 7.37
10:45 am 10:45 Cloudy with Light Rain 65 18.3 62 16.7 90 90 S 13 20 29.50 999 1 2 0.02 0.51
10:59 am 10:59 Cloudy with Light Rain 65 18.3 62 16.7 90 90 S 15 24 29.50 999 1 2 0.07 1.78
11:14 am 11:14 Cloudy with Light Rain 65 18.3 62 16.7 90 90 S 15 24 29.47 998 1 2 0.03 0.76
11:19 am 11:19 Cloudy with Light Rain 65 18.3 62 16.7 90 90 SSW 14 22 29.47 998 4 6 0.03 0.76
11:59 am 11:59 Cloudy 66 18.9 62 16.7 87 87 S 20 31 29.44 997 10 16 0.03 0.76
12:39 pm 12:39 Cloudy with Light Rain 66 18.9 61 16.1 84 84 SSW 25 41 29.47 998 1 2 0.02 0.51
12:59 pm 12:59 Cloudy with Heavy Rain 63 17.2 60 15.6 90 90 WSW 21 33 29.46 998 1 2 0.19 4.83
1:08 pm 13:08 Cloudy with Light Rain 63 17.2 59 15 87 87 SW 17 28 29.47 998 5 8 0.01 0.25
1:15 pm 13:15 Cloudy with Light Rain 63 17.2 59 15 87 87 SW 16 26 29.47 998 5 8 0.01 0.25
1:59 pm 13:59 Cloudy with Rain 65 18.3 59 15 81 81 WSW 18 30 29.49 999 3 5 0.04 1.02
2:59 pm 14:59 Mostly Cloudy 60 15.6 55 12.8 84 84 W 13 20 29.56 1001 10 16 0.01 0.25
3:59 pm 15:59 Partly Cloudy 61 16.1 53 11.7 75 75 W 8 13 29.60 1002 10 16 0.00 0.00
4:59 pm 16:59 Partly Cloudy 59 15 49 9.4 69 69 W 9 15 29.65 1004 10 16 0.00 0.00
5:59 pm 17:59 Mostly Clear 56 13.3 41 5 57 57 W 14 22 29.70 1006 10 16 0.00 0.00
6:59 pm 18:59 Mostly Cloudy 52 11.1 40 4.4 64 64 WNW 12 19 29.76 1008 10 16 0.00 0.00
7:59 pm 19:59 Partly Cloudy 51 10.6 38 3.3 61 61 NW 13 20 29.80 1009 10 16 0.00 0.00
8:59 pm 20:59 Mostly Clear 45 7.2 38 3.3 77 77 N 7 11 29.85 1011 10 16 0.00 0.00
9:59 pm 21:59 Partly Cloudy 42 5.6 36 2.2 79 79 ENE 7 11 29.89 1012 10 16 0.00 0.00
10:59 pm 22:59 Mostly Cloudy 42 5.6 35 1.7 76 76 NE 5 7 29.93 1013 10 16 0.00 0.00
11:59 pm 23:59 Mostly Cloudy 42 5.6 35 1.7 76 76 NNE 7 11 29.95 1014 10 16 0.00 0.00

Powered by AerisWeather